EZY612 EGPH-LQBK

Flight info

Callsign EZY612
Flight time N/A
Altitude 35000
Route TLA DCT SUSIS DCT BADGA DCT SUTEB DCT GASTU DCT NOMKA DCT ABERU T703 DEXIT DCT MILGO DCT NOVLO
Aircraft A320/M-SDE3FGHIRWY/LB1

Departure

Time 2026-05-01 11:57
Airport Edinburgh Airport (EGPH)

Arrival

Time N/A
Airport Banja Luka International Airport (LQBK)
Time Latitude Longitude Altitude Speed Heading
2026-05-01 11:41 55.94797 -3.35684 117 ft 0 kts 208°
2026-05-01 11:49 55.94800 -3.35681 112 ft 3 kts 208°
2026-05-01 11:49 55.94823 -3.35658 112 ft 3 kts 208°
2026-05-01 11:49 55.94841 -3.35638 112 ft 4 kts 230°
2026-05-01 11:50 55.94850 -3.35600 112 ft 4 kts 282°
2026-05-01 11:50 55.94845 -3.35574 115 ft 0 kts 298°
2026-05-01 11:53 55.94848 -3.35583 116 ft 5 kts 298°
2026-05-01 11:53 55.94882 -3.35694 116 ft 11 kts 298°
2026-05-01 11:53 55.94920 -3.35813 115 ft 11 kts 305°
2026-05-01 11:53 55.94986 -3.35860 115 ft 11 kts 11°
2026-05-01 11:54 55.95055 -3.35789 114 ft 12 kts 25°
2026-05-01 11:54 55.95117 -3.35860 114 ft 12 kts 298°
2026-05-01 11:54 55.95183 -3.35962 115 ft 13 kts 329°
2026-05-01 11:54 55.95260 -3.35909 113 ft 15 kts 58°
2026-05-01 11:55 55.95317 -3.35740 116 ft 17 kts 59°
2026-05-01 11:55 55.95381 -3.35550 113 ft 19 kts 59°
2026-05-01 11:55 55.95441 -3.35408 115 ft 11 kts 23°
2026-05-01 11:55 55.95512 -3.35454 113 ft 12 kts 329°
2026-05-01 11:56 55.95563 -3.35582 113 ft 15 kts 254°
2026-05-01 11:56 55.95506 -3.35756 112 ft 21 kts 239°
2026-05-01 11:56 55.95299 -3.36377 111 ft 94 kts 239°
2026-05-01 11:56 55.94849 -3.37686 114 ft 150 kts 239°
2026-05-01 11:57 55.94297 -3.39383 627 ft 159 kts 240°
2026-05-01 11:57 55.93715 -3.41103 1262 ft 166 kts 237°
2026-05-01 11:57 55.93066 -3.42938 1586 ft 188 kts 236°
2026-05-01 11:57 55.92323 -3.45044 1894 ft 214 kts 236°
2026-05-01 11:58 55.91492 -3.47422 2383 ft 238 kts 236°
2026-05-01 11:58 55.90585 -3.50030 3122 ft 252 kts 236°
2026-05-01 11:58 55.88216 -3.54516 5170 ft 254 kts 202°
2026-05-01 11:59 55.86481 -3.55102 6151 ft 259 kts 178°
2026-05-01 11:59 55.84717 -3.54335 7032 ft 264 kts 164°
2026-05-01 11:59 55.82960 -3.53312 7915 ft 267 kts 165°
2026-05-01 12:00 55.79386 -3.51282 9631 ft 272 kts 166°
2026-05-01 12:00 55.77565 -3.50294 10374 ft 278 kts 166°
2026-05-01 12:00 55.73574 -3.48123 10780 ft 325 kts 165°
2026-05-01 12:01 55.71333 -3.46896 10948 ft 347 kts 165°
2026-05-01 12:01 55.69002 -3.45622 11489 ft 354 kts 165°
2026-05-01 12:01 55.66633 -3.44325 12159 ft 358 kts 165°
2026-05-01 12:01 55.64237 -3.43031 12867 ft 362 kts 165°
2026-05-01 12:02 55.61819 -3.41726 13550 ft 365 kts 165°
2026-05-01 12:02 55.59386 -3.40410 14195 ft 368 kts 165°
2026-05-01 12:02 55.56926 -3.39074 14790 ft 371 kts 164°
2026-05-01 12:02 55.54558 -3.37172 15364 ft 379 kts 150°
2026-05-01 12:03 55.52571 -3.34146 15925 ft 389 kts 133°
2026-05-01 12:03 55.51137 -3.30042 16449 ft 400 kts 116°
2026-05-01 12:03 55.50486 -3.25220 16985 ft 412 kts 97°
2026-05-01 12:03 55.50588 -3.20115 17529 ft 420 kts 88°
2026-05-01 12:04 55.50849 -3.14962 18067 ft 423 kts 89°
2026-05-01 12:04 55.51093 -3.09767 18562 ft 427 kts 89°
2026-05-01 12:04 55.51330 -3.04534 19015 ft 429 kts 89°
2026-05-01 12:04 55.51572 -2.99267 19479 ft 432 kts 89°
2026-05-01 12:05 55.51807 -2.94036 19945 ft 435 kts 89°
2026-05-01 12:05 55.52271 -2.83340 20864 ft 439 kts 89°
2026-05-01 12:05 55.52498 -2.77949 21286 ft 442 kts 89°
2026-05-01 12:06 55.52725 -2.72516 21694 ft 445 kts 90°
2026-05-01 12:06 55.52960 -2.67047 22103 ft 448 kts 89°
2026-05-01 12:06 55.53188 -2.61546 22518 ft 451 kts 90°
2026-05-01 12:06 55.53419 -2.56011 22950 ft 453 kts 89°
2026-05-01 12:07 55.53654 -2.50447 23370 ft 456 kts 90°
2026-05-01 12:07 55.53872 -2.44923 23769 ft 458 kts 90°
2026-05-01 12:07 55.54095 -2.39300 24122 ft 461 kts 90°
2026-05-01 12:07 55.54311 -2.33641 24477 ft 463 kts 90°
2026-05-01 12:08 55.54527 -2.27967 24808 ft 465 kts 90°
2026-05-01 12:08 55.54755 -2.22255 25122 ft 467 kts 90°
2026-05-01 12:08 55.54973 -2.16530 25451 ft 468 kts 90°
2026-05-01 12:08 55.55189 -2.10783 25763 ft 470 kts 90°
2026-05-01 12:09 55.55402 -2.05013 26060 ft 472 kts 90°
2026-05-01 12:09 55.55619 -1.99224 26368 ft 474 kts 90°
2026-05-01 12:09 55.55827 -1.93487 26663 ft 475 kts 90°
2026-05-01 12:09 55.56035 -1.87644 26955 ft 477 kts 90°
2026-05-01 12:10 55.56239 -1.81804 27376 ft 476 kts 90°
2026-05-01 12:10 55.56645 -1.70161 28227 ft 474 kts 90°
2026-05-01 12:10 55.56840 -1.64358 28633 ft 473 kts 90°
2026-05-01 12:11 55.57218 -1.52770 29443 ft 472 kts 90°
2026-05-01 12:11 55.57402 -1.47063 29850 ft 471 kts 90°
2026-05-01 12:11 55.57587 -1.41290 30255 ft 470 kts 90°
2026-05-01 12:12 55.57767 -1.35526 30605 ft 470 kts 90°
2026-05-01 12:12 55.57950 -1.29763 30964 ft 469 kts 90°
2026-05-01 12:12 55.58120 -1.24018 31311 ft 468 kts 90°
2026-05-01 12:12 55.58288 -1.18281 31657 ft 467 kts 90°
2026-05-01 12:13 55.58456 -1.12552 32000 ft 466 kts 90°
2026-05-01 12:13 55.58626 -1.06825 32313 ft 466 kts 91°
2026-05-01 12:13 55.58795 -1.01104 32608 ft 467 kts 91°
2026-05-01 12:13 55.58957 -0.95456 32929 ft 466 kts 91°
2026-05-01 12:14 55.59110 -0.89732 33267 ft 466 kts 91°
2026-05-01 12:14 55.59259 -0.84017 33609 ft 465 kts 91°
2026-05-01 12:14 55.59406 -0.78311 33956 ft 464 kts 91°
2026-05-01 12:14 55.59552 -0.72624 34269 ft 463 kts 91°
2026-05-01 12:15 55.59694 -0.66937 34551 ft 463 kts 91°
2026-05-01 12:15 55.59842 -0.61255 34841 ft 462 kts 91°
2026-05-01 12:15 55.59989 -0.55579 35098 ft 463 kts 91°
2026-05-01 12:15 55.60131 -0.49882 35175 ft 465 kts 91°
2026-05-01 12:16 55.60393 -0.38518 35186 ft 466 kts 91°
2026-05-01 12:16 55.60642 -0.27078 35187 ft 466 kts 91°
2026-05-01 12:17 55.60861 -0.15638 35183 ft 465 kts 91°
2026-05-01 12:17 55.61075 -0.04197 35185 ft 465 kts 92°
2026-05-01 12:18 55.61278 0.07238 35169 ft 465 kts 92°
2026-05-01 12:18 55.61466 0.18612 35169 ft 466 kts 92°
2026-05-01 12:19 55.61640 0.30074 35178 ft 466 kts 92°
2026-05-01 12:19 55.61818 0.41539 35179 ft 466 kts 92°
2026-05-01 12:20 55.61980 0.53004 35180 ft 466 kts 92°
2026-05-01 12:20 55.62131 0.64391 35168 ft 466 kts 92°
2026-05-01 12:21 55.62269 0.75867 35183 ft 466 kts 93°
2026-05-01 12:21 55.62389 0.87335 35186 ft 466 kts 93°
2026-05-01 12:22 55.62516 0.98810 35195 ft 466 kts 93°
2026-05-01 12:22 55.62625 1.10281 35194 ft 466 kts 93°
2026-05-01 12:23 55.62712 1.21668 35191 ft 466 kts 93°
2026-05-01 12:23 55.62808 1.33143 35197 ft 466 kts 93°
2026-05-01 12:24 55.62880 1.44613 35201 ft 466 kts 94°
2026-05-01 12:24 55.62950 1.56087 35196 ft 466 kts 93°
2026-05-01 12:25 55.63028 1.73220 35201 ft 466 kts 93°
2026-05-01 12:26 55.63067 1.84670 35208 ft 466 kts 94°
2026-05-01 12:26 55.63107 2.01873 35227 ft 466 kts 94°
2026-05-01 12:27 55.63114 2.19000 35227 ft 466 kts 94°
2026-05-01 12:28 55.63088 2.36203 35226 ft 466 kts 93°
2026-05-01 12:29 55.63063 2.53409 35239 ft 466 kts 94°
2026-05-01 12:29 55.61320 2.69914 35248 ft 455 kts 115°
2026-05-01 12:30 55.57959 2.85629 35236 ft 456 kts 114°
2026-05-01 12:31 55.55730 2.96124 35245 ft 456 kts 114°
2026-05-01 12:31 55.53477 3.06607 35248 ft 457 kts 114°
2026-05-01 12:32 55.51219 3.17095 35253 ft 457 kts 114°
2026-05-01 12:32 55.47814 3.32804 35248 ft 457 kts 115°
2026-05-01 12:33 55.45553 3.43174 35249 ft 456 kts 114°
2026-05-01 12:33 55.43279 3.53602 35254 ft 456 kts 114°
2026-05-01 12:34 55.40979 3.64007 35264 ft 455 kts 114°
2026-05-01 12:34 55.38682 3.74399 35266 ft 456 kts 114°
2026-05-01 12:35 55.36372 3.84783 35274 ft 456 kts 115°